Location: ??
(34.7252°N, 135.5457°E)
Time: 18:04:32
(UTC+00:00)

Cosmos 1864 Rocket - Pass Details

Date: 24 September 2020
Orbit: 950 x 998 km, 82.9° (Epoch: 27 October)

Event Time Altitude Azimuth Distance (km) Brightness Sun altitude
Rises 20:00:48 0° 349° (N) 3,677 7.5 -10.5°
Reaches altitude 10° 20:03:21 10° 346° (NNW) 2,719 6.8 -10.0°
Maximum altitude 20:09:28 62° 268° (W) 1,078 4.5 -8.7°
Drops below altitude 10° 20:15:29 10° 189° (S) 2,675 6.7 -7.5°
Sets 20:17:59 0° 186° (S) 3,613 7.4 -7.0°
